Wind_Speed
27 26 25 24 24 24 24 25 24 24 24 24 24 24 23 23 22 22 22 21 19 20 21 21 23 25 27 28 28 27 26 25 24 23 21 20 19 18 16 15 14 13 12
30 28 26 25 25 25 25 26 25 24 24 25 25 25 24 22 21 20 21 20 20 20 20 20 21 23 26 28 29 30 29 28 27 26 25 23 22 21 19 18 16 15 14
32 29 26 25 24 25 25 25 26 26 26 25 25 24 23 22 21 21 20 20 20 20 20 20 21 22 24 26 28 29 30 31 30 30 28 27 26 24 23 21 20 18 16
32 29 26 24 24 25 26 26 26 26 26 26 26 25 23 22 21 20 19 18 18 19 19 20 21 22 23 24 26 28 30 31 32 32 31 30 29 28 26 24 23 22 20
30 27 26 25 25 25 25 26 26 26 26 26 26 25 23 22 21 19 17 16 16 16 17 18 19 20 21 23 25 28 29 30 32 33 33 33 32 31 30 28 26 25 24
28 27 26 25 24 24 25 25 25 25 25 25 24 24 23 21 19 18 16 15 14 14 15 16 17 18 20 21 24 26 29 30 31 33 34 35 34 34 32 31 30 28 27
28 27 27 26 25 25 24 24 24 24 24 24 24 23 22 21 20 18 16 15 14 13 13 14 15 17 18 20 22 25 27 29 30 32 34 36 36 36 35 34 33 32 30
27 27 27 26 26 26 25 24 23 23 23 23 23 23 23 22 21 19 18 17 15 14 13 14 14 15 17 19 21 24 26 29 30 31 33 35 37 37 38 38 37 35 33
27 28 29 29 28 27 27 25 25 24 24 24 24 24 24 24 23 21 19 18 17 16 15 14 14 15 16 18 21 23 26 28 30 31 33 34 35 36 38 39 40 39 36
29 31 32 31 30 29 29 28 27 27 27 26 26 26 26 25 25 23 21 19 18 17 16 15 15 15 16 18 20 23 26 28 30 31 32 33 34 35 38 38 38 40 40
31 33 33 33 32 31 31 31 31 31 31 30 29 28 27 27 27 26 24 22 20 19 18 17 16 16 16 18 19 21 24 27 30 32 33 33 34 34 34 38 40 41 42
37 37 37 36 35 35 34 34 34 34 34 34 33 31 30 29 29 29 28 25 23 21 20 20 19 18 18 18 19 20 22 25 28 31 33 33 33 33 34 35 37 39 40
44 44 43 42 41 40 39 38 38 37 38 38 37 36 34 32 32 31 30 29 27 24 22 22 22 21 19 19 20 20 21 23 26 28 30 31 32 31 32 33 35 37 39
51 51 50 49 48 46 45 44 43 42 42 42 41 40 38 36 35 34 32 31 30 28 26 24 23 22 21 20 20 20 20 21 23 25 27 29 29 29 30 30 30 33 36
57 57 57 56 55 53 52 50 49 47 46 46 45 45 44 42 39 37 36 34 32 31 29 27 25 24 22 21 21 20 20 20 21 22 24 26 26 27 26 27 27 30 32
62 62 63 62 61 60 58 57 55 53 52 51 50 49 48 46 45 41 39 37 35 33 31 29 27 26 24 23 22 21 20 20 21 22 23 24 24 25 25 24 25 25 26
64 66 67 67 67 67 65 63 62 60 59 56 54 53 52 51 49 46 43 40 37 35 32 31 29 27 26 24 22 21 20 19 20 21 22 23 24 24 24 23 23 24 24
58 64 68 70 72 72 71 70 68 66 65 63 60 58 56 54 52 50 47 44 41 38 34 32 30 29 27 25 23 22 21 20 20 22 23 24 24 25 24 24 23 22 22
51 55 61 67 72 75 76 76 74 71 70 68 66 63 60 58 55 53 51 48 44 40 37 34 32 30 28 26 24 23 22 21 20 21 23 24 25 26 25 24 24 23 23
47 48 50 55 62 68 73 77 78 77 74 72 70 67 64 63 59 56 54 50 47 43 40 36 33 31 29 28 25 24 23 21 21 22 23 25 25 26 26 25 25 25 24
45 44 44 45 48 54 60 67 75 78 77 75 74 71 68 65 62 59 56 54 50 46 42 38 35 32 30 28 26 24 23 21 21 21 23 24 26 26 26 26 26 26 26
45 45 44 42 42 43 46 51 59 68 74 77 76 74 70 67 63 59 57 55 52 48 44 41 37 34 31 29 27 25 23 22 21 21 22 24 26 27 27 27 27 27 26
46 47 46 44 42 40 40 40 43 50 59 67 73 75 74 70 67 64 59 56 53 51 47 43 39 36 33 30 28 25 23 21 20 21 22 23 24 26 26 27 26 26 26
44 46 47 46 44 41 39 38 37 37 41 49 58 66 70 72 69 66 62 58 55 52 48 45 41 38 35 32 29 26 23 21 20 21 21 22 23 24 25 24 25 25 25
39 43 46 46 45 42 40 39 37 36 34 36 42 50 58 64 66 66 63 59 55 51 48 45 43 40 37 34 30 26 23 21 21 21 21 22 22 23 24 24 24 24 23
35 37 41 43 43 42 41 39 38 36 34 33 34 39 46 53 59 62 62 59 57 53 49 46 44 41 38 34 31 27 24 22 22 21 21 21 22 22 22 22 22 23 23
Wind_Direction
254 256 259 262 264 267 268 269 269 270 270 269 270 271 273 277 273 268 266 265 263 262 259 254 251 248 246 245 242 238 235 234 233 232 230 229 229 229 230 232 233 233 233
252 253 256 258 260 263 266 266 266 267 266 266 268 270 271 271 271 269 266 263 261 260 255 250 249 250 247 246 243 239 239 236 235 234 233 233 232 231 232 233 235 235 235
249 249 252 255 258 261 263 263 264 264 264 265 266 266 266 265 266 265 263 261 260 258 254 249 248 249 249 246 243 241 240 238 237 237 237 236 236 235 234 235 236 237 238
246 248 249 254 257 259 260 261 262 262 262 262 262 263 262 259 259 259 258 259 258 257 255 252 252 252 250 250 248 245 243 241 240 239 239 238 238 237 236 236 237 238 239
245 249 252 255 257 258 258 258 259 259 259 259 258 258 256 254 252 251 252 254 257 259 258 257 255 254 252 252 250 248 246 245 243 242 241 239 239 239 238 238 237 238 239
245 251 254 256 257 257 256 256 256 255 254 253 252 250 248 246 244 243 245 248 252 256 260 261 259 256 254 253 252 250 249 247 246 245 244 242 241 241 241 240 239 239 240
247 250 256 258 258 256 254 253 252 251 249 247 244 242 240 237 236 237 240 244 248 252 258 262 262 260 257 255 254 253 251 250 249 249 248 245 243 242 243 243 242 242 242
251 253 257 259 259 256 254 251 247 245 245 243 240 238 236 234 234 235 238 242 246 250 256 262 265 265 261 259 258 256 254 252 251 250 249 247 244 243 244 245 245 244 244
263 260 259 259 259 257 254 250 244 240 239 238 237 236 236 234 234 236 238 241 246 249 253 259 264 268 267 264 261 259 256 254 253 253 252 250 248 246 246 246 245 246 245
264 261 259 258 257 256 253 248 243 238 236 235 235 236 236 236 237 238 239 243 247 251 255 259 264 270 273 271 267 262 258 256 254 254 253 253 252 251 248 246 245 245 245
263 260 257 255 254 254 252 248 244 239 236 235 235 236 238 238 239 240 241 242 247 253 258 262 268 273 276 276 274 269 263 258 255 253 253 254 253 253 252 248 245 244 243
261 258 256 254 252 251 250 247 245 241 238 237 236 237 237 239 241 242 244 245 247 251 257 263 268 273 278 281 281 277 269 262 256 253 252 253 252 252 253 251 246 244 241
257 255 253 252 250 249 248 246 245 243 241 239 238 238 238 238 239 241 245 248 250 252 256 262 267 272 278 283 285 282 275 266 259 254 252 252 250 251 252 251 248 244 242
254 252 251 249 248 247 245 245 244 243 242 241 240 239 238 238 238 239 242 247 252 256 259 262 266 272 278 283 287 286 279 271 263 256 252 250 248 248 248 247 248 245 241
253 250 248 247 246 244 243 243 243 242 242 242 242 241 240 239 238 238 239 243 248 255 259 262 265 270 275 282 287 286 282 274 264 257 251 247 245 243 244 246 248 243 238
255 251 248 246 244 243 241 241 240 240 240 241 242 242 241 241 240 239 239 240 244 250 256 260 264 268 273 278 284 286 284 275 265 257 250 245 242 240 241 242 241 239 238
255 252 249 246 244 242 240 239 238 238 238 239 240 241 241 241 241 240 239 239 241 245 250 256 261 265 270 275 281 283 282 278 267 257 248 244 242 238 235 236 237 236 235
257 252 248 246 244 242 240 238 237 236 236 237 238 239 240 241 241 240 239 239 239 241 245 250 256 261 266 271 276 280 281 278 268 257 246 243 239 236 235 236 237 238 237
261 256 251 247 244 242 240 238 237 235 235 235 235 236 238 239 239 239 239 238 238 239 241 245 251 256 262 267 272 277 278 276 269 256 246 241 238 237 237 239 239 241 243
261 257 253 250 246 243 241 239 238 236 235 234 234 234 235 236 237 238 238 237 237 237 239 242 246 251 257 262 268 272 274 273 266 255 246 241 238 238 238 241 243 244 246
257 253 250 249 248 246 244 242 240 238 236 235 234 233 232 233 233 235 236 236 235 235 236 238 242 247 253 257 263 267 269 269 265 254 246 241 239 239 239 241 243 245 247
253 248 245 245 246 246 245 244 243 241 238 236 235 233 232 231 231 232 233 234 233 233 234 236 239 243 248 252 258 262 266 265 259 252 246 242 239 239 240 241 243 245 245
251 245 242 242 243 243 244 244 243 242 241 239 237 235 233 232 231 231 231 231 232 232 232 233 236 240 244 247 252 257 261 260 255 249 244 241 241 240 240 241 243 244 244
250 243 240 240 240 241 241 240 240 240 240 239 238 237 235 233 232 232 231 230 230 228 229 230 232 235 239 242 247 251 254 255 250 246 242 241 239 238 239 241 242 242 243
251 241 238 237 238 238 239 238 237 237 237 237 236 236 236 235 233 232 229 228 227 225 225 226 229 231 234 238 242 245 247 247 244 241 240 241 241 241 240 241 240 239 240
249 240 236 235 234 235 235 235 235 235 235 235 234 235 234 233 232 229 227 225 225 224 223 223 225 227 230 233 236 238 240 239 240 239 239 241 241 240 239 238 238 239 240
Height
5845 5846 5847 5848 5849 5848 5848 5848 5848 5849 5850 5850 5850 5850 5851 5851 5851 5851 5851 5852 5852 5853 5854 5855 5857 5858 5860 5863 5865 5868 5870 5872 5875 5877 5879 5881 5882 5884 5886 5887 5888 5890 5891
5838 5839 5840 5841 5842 5842 5842 5842 5843 5843 5844 5845 5845 5845 5846 5847 5846 5846 5846 5847 5847 5848 5848 5850 5851 5853 5854 5856 5859 5861 5864 5867 5870 5872 5874 5877 5879 5881 5882 5884 5886 5887 5889
5830 5831 5832 5833 5834 5835 5836 5836 5837 5837 5838 5839 5840 5840 5841 5841 5841 5841 5842 5842 5842 5843 5844 5845 5846 5847 5849 5850 5852 5855 5858 5861 5864 5867 5869 5872 5874 5876 5878 5880 5882 5884 5886
5822 5823 5825 5826 5827 5829 5829 5830 5830 5831 5832 5832 5833 5835 5836 5836 5837 5837 5838 5838 5838 5838 5839 5840 5842 5842 5844 5845 5846 5849 5852 5855 5857 5860 5863 5866 5869 5872 5874 5876 5878 5880 5882
5815 5816 5818 5819 5821 5822 5822 5823 5824 5824 5825 5826 5827 5829 5830 5831 5832 5833 5834 5834 5834 5834 5835 5836 5837 5838 5839 5840 5841 5843 5846 5848 5851 5854 5857 5860 5863 5866 5869 5871 5873 5876 5878
5808 5809 5811 5812 5814 5815 5816 5816 5817 5818 5819 5820 5821 5823 5824 5826 5827 5829 5830 5830 5830 5831 5831 5831 5832 5832 5833 5835 5836 5838 5840 5842 5845 5848 5850 5853 5856 5859 5862 5865 5868 5871 5873
5801 5802 5804 5805 5806 5807 5808 5809 5811 5812 5813 5814 5815 5817 5819 5821 5823 5824 5826 5827 5827 5827 5827 5827 5827 5827 5828 5829 5831 5832 5834 5836 5838 5841 5843 5846 5849 5852 5855 5859 5862 5865 5868
5794 5796 5797 5798 5799 5800 5801 5802 5803 5805 5806 5808 5810 5812 5814 5817 5819 5820 5822 5823 5823 5823 5823 5823 5823 5823 5823 5823 5825 5826 5828 5830 5832 5834 5836 5839 5842 5845 5848 5851 5855 5858 5862
5788 5789 5790 5791 5792 5793 5794 5795 5796 5798 5800 5802 5804 5806 5809 5811 5813 5815 5817 5818 5819 5820 5820 5819 5819 5819 5818 5818 5818 5820 5821 5823 5825 5828 5830 5832 5835 5838 5841 5844 5847 5851 5854
5782 5782 5783 5783 5784 5785 5786 5788 5789 5791 5793 5795 5797 5800 5803 5805 5808 5810 5812 5813 5815 5815 5815 5815 5814 5814 5814 5813 5813 5813 5815 5816 5818 5821 5823 5825 5827 5830 5833 5836 5839 5842 5846
5774 5774 5774 5775 5776 5777 5778 5780 5781 5783 5786 5788 5790 5793 5796 5798 5801 5804 5806 5809 5810 5811 5811 5811 5810 5809 5809 5808 5807 5807 5808 5809 5811 5813 5815 5817 5820 5822 5825 5828 5831 5834 5838
5764 5764 5765 5765 5766 5767 5769 5770 5772 5775 5777 5780 5783 5786 5788 5791 5794 5797 5799 5802 5804 5806 5806 5806 5805 5804 5803 5802 5801 5801 5801 5802 5804 5805 5807 5810 5812 5815 5817 5819 5822 5825 5829
5751 5752 5753 5754 5755 5756 5758 5759 5762 5765 5767 5770 5774 5777 5780 5783 5786 5789 5792 5794 5797 5799 5800 5800 5800 5799 5798 5796 5795 5795 5794 5795 5796 5798 5800 5802 5805 5807 5810 5811 5814 5817 5821
5735 5736 5738 5739 5741 5744 5746 5748 5750 5753 5756 5760 5763 5767 5770 5774 5777 5781 5784 5787 5789 5791 5793 5794 5794 5794 5792 5791 5789 5789 5788 5788 5789 5791 5793 5795 5798 5800 5802 5804 5806 5809 5812
5716 5717 5719 5722 5725 5728 5731 5734 5737 5740 5744 5748 5751 5756 5760 5763 5767 5771 5775 5778 5781 5783 5785 5787 5788 5788 5787 5786 5784 5783 5782 5782 5783 5784 5786 5788 5791 5794 5796 5798 5800 5802 5805
5694 5696 5699 5702 5706 5710 5714 5718 5722 5726 5730 5734 5738 5743 5747 5752 5756 5761 5765 5769 5772 5775 5777 5779 5780 5781 5781 5780 5779 5778 5777 5777 5777 5778 5780 5782 5785 5788 5790 5792 5794 5796 5799
5670 5673 5676 5680 5684 5688 5694 5699 5704 5709 5714 5719 5724 5729 5734 5739 5744 5749 5754 5759 5763 5767 5769 5771 5773 5774 5774 5774 5774 5773 5772 5771 5772 5773 5775 5777 5779 5782 5785 5787 5789 5791 5794
5645 5647 5650 5655 5660 5665 5671 5677 5684 5690 5696 5702 5708 5714 5719 5725 5730 5736 5742 5747 5752 5757 5760 5763 5765 5767 5768 5768 5768 5767 5767 5766 5766 5767 5769 5771 5774 5777 5780 5782 5785 5787 5790
5623 5624 5626 5630 5634 5640 5647 5654 5661 5669 5676 5683 5691 5697 5704 5710 5716 5722 5729 5735 5741 5746 5751 5754 5757 5759 5761 5762 5762 5761 5761 5761 5761 5762 5763 5766 5769 5772 5775 5777 5780 5782 5785
5604 5604 5605 5607 5611 5616 5623 5630 5638 5646 5655 5663 5672 5680 5687 5694 5701 5707 5714 5721 5728 5735 5740 5745 5748 5751 5753 5755 5755 5755 5755 5755 5755 5756 5758 5760 5763 5767 5770 5772 5775 5777 5779
5585 5586 5588 5590 5592 5597 5602 5608 5616 5624 5633 5643 5652 5661 5669 5677 5684 5691 5699 5707 5715 5723 5729 5735 5739 5743 5746 5748 5749 5749 5749 5749 5749 5750 5752 5755 5758 5761 5764 5767 5769 5771 5774
5567 5569 5571 5574 5577 5581 5585 5590 5596 5604 5613 5622 5632 5641 5650 5660 5667 5676 5684 5693 5702 5710 5718 5724 5730 5734 5738 5740 5742 5742 5743 5743 5744 5746 5747 5750 5753 5755 5758 5761 5763 5765 5767
5548 5551 5555 5559 5563 5567 5571 5576 5581 5587 5594 5603 5612 5622 5632 5641 5651 5660 5669 5678 5688 5697 5706 5714 5720 5725 5729 5732 5734 5736 5737 5738 5738 5740 5742 5744 5747 5750 5752 5755 5757 5759 5761
5528 5533 5538 5544 5549 5554 5559 5564 5569 5574 5580 5586 5594 5603 5614 5624 5633 5643 5654 5665 5675 5685 5694 5703 5710 5715 5720 5724 5727 5729 5730 5732 5733 5735 5738 5740 5742 5744 5747 5749 5751 5753 5755
5510 5515 5522 5528 5535 5541 5546 5552 5557 5563 5569 5574 5580 5588 5597 5607 5618 5630 5641 5652 5663 5673 5682 5691 5698 5705 5710 5715 5719 5722 5724 5726 5728 5730 5732 5735 5737 5739 5741 5743 5745 5747 5750
5494 5499 5506 5513 5521 5528 5534 5540 5546 5553 5559 5564 5570 5576 5584 5592 5602 5614 5627 5639 5651 5662 5671 5680 5688 5695 5701 5706 5711 5715 5718 5720 5722 5725 5727 5730 5732 5734 5736 5738 5739 5742 5744